Location: Chandrammap?lem
(16.9200°N, 81.0051°E)
Time: 10:58:31
(UTC+00:00)

Transat O-11 - Visible Passes

Search period start: 06 October 2024 00:00
Search period end: 16 October 2024 00:00
Orbit: 1057 x 1095 km, 89.6° (Epoch: 06 October)

Date Brightness Start Highest point End Pass type
(mag) Time Alt. Az. Time Alt. Az. Time Alt. Az.
06 Oct 8.5 23:30:18 10° S 23:36:51 72° E 23:43:24 10° N visible
07 Oct 10.9 12:42:17 10° NNW 12:47:25 24° W 12:52:34 10° SW visible
07 Oct 10.3 22:40:41 10° SE 22:45:53 25° E 22:51:05 10° NNE visible
08 Oct 8.2 23:34:21 10° S 23:40:57 88° W 23:47:34 10° N visible
09 Oct 11.1 12:47:13 10° NW 12:51:27 18° W 12:55:42 10° WSW visible
09 Oct 9.8 22:44:10 10° SE 22:49:56 33° E 22:55:43 10° NNE visible
10 Oct 11.2 21:58:12 10° E 21:59:10 10° E 22:00:07 10° ENE visible
10 Oct 8.1 23:38:33 10° S 23:45:04 68° W 23:51:38 10° N visible
11 Oct 11.3 12:52:40 10° NW 12:55:29 13° W 12:58:18 10° WSW visible
11 Oct 9.3 22:47:51 10° SSE 22:54:00 43° E 23:00:11 10° NNE visible
12 Oct 10.8 21:59:45 10° ESE 22:03:10 15° E 22:06:35 10° NE visible
12 Oct 8.3 23:42:51 10° SSW 23:49:12 52° W 23:55:37 10° NNW visible
13 Oct 8.8 22:51:40 10° SSE 22:58:05 57° E 23:04:32 10° N visible
14 Oct 10.5 22:02:38 10° SE 22:07:11 20° E 22:11:44 10° NE visible
14 Oct 8.6 23:47:18 10° SSW 23:53:21 39° W 23:59:28 10° NNW visible
15 Oct 8.3 22:55:37 10° S 23:02:11 75° E 23:08:47 10° N visible
